Location: Aurora Center
(43.5271°N, 98.5894°W)
Time: 01:06:27
(UTC-05:00)

BlueWalker 3 - Pass Details

Date: 24 June 2024
Orbit: 480 x 492 km, 53.2° (Epoch: 15 July)

Event Time Altitude Azimuth Distance (km) Brightness Sun altitude
Rises 03:28:11 0° 302° (WNW) 2,538 5.6 -18.4°
Reaches altitude 10° 03:30:23 10° 298° (WNW) 1,656 4.6 -18.2°
Maximum altitude 03:34:01 52° 221° (SW) 605 1.9 -17.9°
Enters shadow 03:34:30 47° 191° (S) 640 2.0 -17.8°
